This is the latest recevied weather packets stored in our database for station/object KC4LZN. If no packets are shown the sender has not sent any weather packets the latest 10 day(s).
| Time | Temp. | Humidity | Pressure | Rain* | Wind** | Luminosity | Snow |
|---|---|---|---|---|---|---|---|
| 1777580113 | 31.67° C | 48% | 1010.5 hPa | 0 mm | - | 620 W/m² | - |
| 1777579810 | 32.22° C | 45% | 1010.5 hPa | 0 mm | - | 632 W/m² | - |
| 1777579509 | 31.67° C | 45% | 1010.6 hPa | 0 mm | - | 631 W/m² | - |
| 1777579209 | 31.67° C | 46% | 1010.7 hPa | 0 mm | - | 657 W/m² | - |
| 1777578904 | 31.11° C | 45% | 1010.5 hPa | 0 mm | - | 663 W/m² | - |
| 1777578600 | 31.11° C | 44% | 1010.7 hPa | 0 mm | - | 685 W/m² | - |
| 1777578295 | 32.22° C | 45% | 1010.6 hPa | 0 mm | - | 643 W/m² | - |
| 1777577991 | 31.67° C | 42% | 1010.6 hPa | 0 mm | - | 683 W/m² | - |
| 1777577685 | 31.11° C | 46% | 1010.7 hPa | 0 mm | - | 744 W/m² | - |
| 1777577383 | 31.67° C | 45% | 1011.1 hPa | 0 mm | - | 674 W/m² | - |
| 1777577079 | 31.67° C | 45% | 1011 hPa | 0 mm | - | 713 W/m² | - |
| 1777576776 | 31.67° C | 44% | 1011.1 hPa | 0 mm | - | 696 W/m² | - |
| 1777576476 | 31.11° C | 44% | 1011 hPa | 0 mm | - | 203 W/m² | - |
| 1777576173 | 31.67° C | 44% | 1011 hPa | 0 mm | - | 719 W/m² | - |
| 1777575872 | 31.67° C | 45% | 1011.2 hPa | 0 mm | - | 723 W/m² | - |
| 1777575570 | 31.67° C | 44% | 1011.4 hPa | 0 mm | - | 762 W/m² | - |
| 1777575266 | 31.67° C | 44% | 1011.1 hPa | 0 mm | - | 710 W/m² | - |
| 1777574962 | 31.11° C | 45% | 1011.4 hPa | 0 mm | - | 810 W/m² | - |
| 1777574658 | 31.67° C | 44% | 1011.4 hPa | 0 mm | - | 784 W/m² | - |
| 1777574356 | 31.11° C | 46% | 1011.3 hPa | 0 mm | - | 801 W/m² | - |
| 1777574056 | 31.11° C | 45% | 1011.5 hPa | 0 mm | - | 829 W/m² | - |
| 1777573751 | 31.11° C | 45% | 1011.8 hPa | 0 mm | - | 819 W/m² | - |
| 1777573447 | 30.56° C | 45% | 1011.9 hPa | 0 mm | - | 840 W/m² | - |
| 1777573143 | 30.56° C | 45% | 1011.7 hPa | 0 mm | - | 859 W/m² | - |
| 1777572840 | 31.11° C | 45% | 1011.7 hPa | 0 mm | - | 857 W/m² | - |
* Rain latest hour (hover to see other rain measurements)
** Current wind speed in m/s (hover to see current wind gust speed)